Location: Chimay
(50.0486°N, 4.3171°E)
Time: 21:05:47
(UTC+00:00)

SL-08 R/B - Pass Details

Date: 08 August 2020
Orbit: 945 x 1007 km, 82.9° (Epoch: 21 September)

Event Time Altitude Azimuth Distance (km) Brightness Sun altitude
Exits shadow 22:32:22 44° 160° (SSE) 1,277 4.6 -22.1°
Maximum altitude 22:34:15 68° 95° (E) 1,015 4.4 -22.2°
Drops below altitude 10° 22:40:18 10° 14° (NNE) 2,681 7.6 -22.5°
Sets 22:42:49 0° 12° (NNE) 3,635 8.5 -22.6°
